| time (UTC) | temp F | wind direction | speed knots | gust knots | rain 1hr in | rain 24hr in | rain mn in | humidity % | barometer mb |
| 20260507211854 | 77 | 239 | 2.6 | 3.5 | 0.00 | 0.00 | 0.00 | 29 | 1014.4 |
| 20260507211350 | 75 | 63 | 5.2 | 7.8 | 0.00 | 0.00 | 0.00 | 30 | 1014.7 |
| 20260507210848 | 76 | 3 | 4.3 | 6.1 | 0.00 | 0.00 | 0.00 | 32 | 1014.7 |
| 20260507210345 | 77 | 102 | 0.9 | 4.3 | 0.00 | 0.00 | 0.00 | 31 | 1014.6 |
| 20260507205841 | 76 | 219 | 0.0 | 2.6 | 0.00 | 0.00 | 0.00 | 30 | 1014.7 |
| 20260507205338 | 75 | 84 | 1.7 | 5.2 | 0.00 | 0.00 | 0.00 | 33 | 1014.9 |
| 20260507204834 | 76 | 36 | 3.5 | 4.3 | 0.00 | 0.00 | 0.00 | 33 | 1014.8 |
| 20260507204331 | 76 | 172 | 0.0 | 2.6 | 0.00 | 0.00 | 0.00 | 32 | 1014.9 |
| 20260507203829 | 76 | 6 | 2.6 | 8.7 | 0.00 | 0.00 | 0.00 | 31 | 1014.6 |
| 20260507203327 | 75 | 153 | 0.9 | 4.3 | 0.00 | 0.00 | 0.00 | 31 | 1015.1 |
| 20260507202823 | 76 | 337 | 1.7 | 8.7 | 0.00 | 0.00 | 0.00 | 31 | 1014.9 |
| 20260507202319 | 75 | 287 | 6.1 | 6.1 | 0.00 | 0.00 | 0.00 | 32 | 1014.9 |
| 20260507201815 | 75 | 2 | 1.7 | 7.8 | 0.00 | 0.00 | 0.00 | 31 | 1014.8 |
| 20260507201311 | 76 | 344 | 0.9 | 6.1 | 0.00 | 0.00 | 0.00 | 32 | 1014.9 |
| 20260507200807 | 75 | 266 | 1.7 | 4.3 | 0.00 | 0.00 | 0.00 | 31 | 1015.1 |
| 20260507200303 | 75 | 185 | 0.0 | 3.5 | 0.00 | 0.00 | 0.00 | 33 | 1015.2 |
| 20260507195759 | 73 | 237 | 0.9 | 7.0 | 0.00 | 0.00 | 0.00 | 32 | 1015.3 |
| 20260507195257 | 75 | 259 | 3.5 | 5.2 | 0.00 | 0.00 | 0.00 | 32 | 1015.2 |
| 20260507194754 | 75 | 331 | 1.7 | 3.5 | 0.00 | 0.00 | 0.00 | 31 | 1015.2 |
| 20260507194250 | 75 | 1 | 0.9 | 3.5 | 0.00 | 0.00 | 0.00 | 32 | 1015.2 |
| 20260507193747 | 74 | 89 | 1.7 | 3.5 | 0.00 | 0.00 | 0.00 | 32 | 1015.3 |
| 20260507193244 | 74 | 63 | 2.6 | 4.3 | 0.00 | 0.00 | 0.00 | 33 | 1015.2 |
| 20260507192740 | 74 | 203 | 0.0 | 4.3 | 0.00 | 0.00 | 0.00 | 32 | 1015.3 |
| 20260507192236 | 73 | 76 | 3.5 | 6.1 | 0.00 | 0.00 | 0.00 | 32 | 1015.6 |
| 20260507191732 | 74 | 190 | 1.7 | 2.6 | 0.00 | 0.00 | 0.00 | 32 | 1015.3 |
| 20260507191230 | 73 | 292 | 1.7 | 5.2 | 0.00 | 0.00 | 0.00 | 33 | 1015.5 |
| 20260507190726 | 73 | 53 | 4.3 | 5.2 | 0.00 | 0.00 | 0.00 | 33 | 1015.8 |
| 20260507190225 | 73 | 51 | 2.6 | 5.2 | 0.00 | 0.00 | 0.00 | 35 | 1016.0 |
| 20260507185723 | 73 | 69 | 3.5 | 6.1 | 0.00 | 0.00 | 0.00 | 34 | 1015.8 |
| 20260507185220 | 73 | 184 | 1.7 | 4.3 | 0.00 | 0.00 | 0.00 | 37 | 1016.0 |
| 20260507184718 | 73 | 33 | 4.3 | 5.2 | 0.00 | 0.00 | 0.00 | 36 | 1016.1 |
| 20260507184215 | 73 | 257 | 5.2 | 8.7 | 0.00 | 0.00 | 0.00 | 34 | 1016.2 |
| 20260507183712 | 73 | 286 | 0.9 | 7.0 | 0.00 | 0.00 | 0.00 | 32 | 1016.0 |
| 20260507183208 | 73 | 306 | 2.6 | 7.8 | 0.00 | 0.00 | 0.00 | 33 | 1016.0 |
| 20260507182706 | 73 | 255 | 0.0 | 4.3 | 0.00 | 0.00 | 0.00 | 33 | 1016.0 |
| 20260507182201 | 73 | 167 | 0.9 | 1.7 | 0.00 | 0.00 | 0.00 | 33 | 1016.1 |
| 20260507181658 | 71 | 289 | 5.2 | 5.2 | 0.00 | 0.00 | 0.00 | 34 | 1016.2 |
| 20260507181154 | 72 | 315 | 2.6 | 3.5 | 0.00 | 0.00 | 0.00 | 35 | 1016.0 |
| 20260507180650 | 72 | 260 | 1.7 | 3.5 | 0.00 | 0.00 | 0.00 | 35 | 1015.9 |
| 20260507180148 | 71 | 25 | 2.6 | 5.2 | 0.00 | 0.00 | 0.00 | 34 | 1016.3 |
| 20260507175643 | 70 | 237 | 2.6 | 5.2 | 0.00 | 0.00 | 0.00 | 35 | 1016.2 |
| 20260507175141 | 71 | 291 | 1.7 | 5.2 | 0.00 | 0.00 | 0.00 | 35 | 1016.3 |
| 20260507174638 | 70 | 210 | 6.1 | 6.1 | 0.00 | 0.00 | 0.00 | 36 | 1016.4 |
| 20260507174136 | 71 | 256 | 2.6 | 6.1 | 0.00 | 0.00 | 0.00 | 34 | 1016.5 |
| 20260507173633 | 71 | 217 | 5.2 | 6.1 | 0.00 | 0.00 | 0.00 | 36 | 1016.4 |
| 20260507173130 | 70 | 226 | 7.8 | 8.7 | 0.00 | 0.00 | 0.00 | 36 | 1016.7 |
| 20260507172626 | 69 | 284 | 1.7 | 5.2 | 0.00 | 0.00 | 0.00 | 36 | 1016.6 |
| 20260507172124 | 69 | 288 | 6.1 | 6.1 | 0.00 | 0.00 | 0.00 | 37 | 1016.4 |
| 20260507171618 | 69 | 271 | 4.3 | 6.1 | 0.00 | 0.00 | 0.00 | 39 | 1016.6 |
| 20260507171115 | 69 | 264 | 6.1 | 8.7 | 0.00 | 0.00 | 0.00 | 36 | 1016.6 |
| 20260507170613 | 69 | 255 | 3.5 | 7.8 | 0.00 | 0.00 | 0.00 | 35 | 1016.6 |
| 20260507170110 | 69 | 284 | 2.6 | 2.6 | 0.00 | 0.00 | 0.00 | 38 | 1016.6 |
| 20260507165605 | 69 | 304 | 1.7 | 3.5 | 0.00 | 0.00 | 0.00 | 37 | 1016.5 |
| 20260507165102 | 69 | 280 | 2.6 | 5.2 | 0.00 | 0.00 | 0.00 | 38 | 1016.7 |
| 20260507164558 | 69 | 289 | 4.3 | 5.2 | 0.00 | 0.00 | 0.00 | 38 | 1016.7 |
| 20260507164055 | 68 | 285 | 7.0 | 7.8 | 0.00 | 0.00 | 0.00 | 38 | 1016.6 |
| 20260507163552 | 69 | 275 | 4.3 | 6.1 | 0.00 | 0.00 | 0.00 | 38 | 1016.8 |
| 20260507163050 | 68 | 268 | 0.9 | 2.6 | 0.00 | 0.00 | 0.00 | 39 | 1016.6 |
| 20260507162550 | 68 | 313 | 1.7 | 3.5 | 0.00 | 0.00 | 0.00 | 37 | 1016.8 |
| 20260507162048 | 68 | 336 | 3.5 | 4.3 | 0.00 | 0.00 | 0.00 | 38 | 1016.5 |
| 20260507161543 | 68 | 349 | 0.9 | 2.6 | 0.00 | 0.00 | 0.00 | 37 | 1016.6 |
| 20260507161040 | 67 | 248 | 4.3 | 6.1 | 0.00 | 0.00 | 0.00 | 37 | 1016.9 |
| 20260507160536 | 68 | 267 | 1.7 | 4.3 | 0.00 | 0.00 | 0.00 | 37 | 1016.9 |
| 20260507160033 | 69 | 323 | 0.9 | 1.7 | 0.00 | 0.00 | 0.00 | 39 | 1016.6 |
| 20260507155528 | 68 | 332 | 2.6 | 5.2 | 0.00 | 0.00 | 0.00 | 38 | 1016.7 |
| 20260507155026 | 68 | 281 | 1.7 | 5.2 | 0.00 | 0.00 | 0.00 | 39 | 1016.6 |
| 20260507154522 | 67 | 251 | 2.6 | 4.3 | 0.00 | 0.00 | 0.00 | 41 | 1016.6 |
| 20260507154020 | 67 | 254 | 3.5 | 4.3 | 0.00 | 0.00 | 0.00 | 40 | 1016.7 |
| 20260507153516 | 66 | 247 | 0.9 | 3.5 | 0.00 | 0.00 | 0.00 | 41 | 1016.8 |
| 20260507153012 | 66 | 265 | 1.7 | 3.5 | 0.00 | 0.00 | 0.00 | 43 | 1016.9 |
| 20260507152508 | 66 | 223 | 1.7 | 1.7 | 0.00 | 0.00 | 0.00 | 50 | 1016.7 |
| 20260507152005 | 68 | 52 | 1.7 | 1.7 | 0.00 | 0.00 | 0.00 | 52 | 1016.9 |
| 20260507151501 | 66 | 120 | 0.0 | 1.7 | 0.00 | 0.00 | 0.00 | 56 | 1016.9 |
| 20260507150958 | 64 | 126 | 0.9 | 1.7 | 0.00 | 0.00 | 0.00 | 59 | 1016.9 |
| 20260507150455 | 64 | 65 | 1.7 | 2.6 | 0.00 | 0.00 | 0.00 | 59 | 1017.0 |
| 20260507145951 | 64 | 65 | 1.7 | 1.7 | 0.00 | 0.00 | 0.00 | 58 | 1016.9 |
| 20260507145447 | 64 | 114 | 0.9 | 1.7 | 0.00 | 0.00 | 0.00 | 62 | 1016.9 |
| 20260507144944 | 62 | 38 | 2.6 | 3.5 | 0.00 | 0.00 | 0.00 | 62 | 1016.8 |
| 20260507144441 | 62 | 46 | 4.3 | 4.3 | 0.00 | 0.00 | 0.00 | 60 | 1016.7 |
| 20260507143938 | 63 | 88 | 0.9 | 1.7 | 0.00 | 0.00 | 0.00 | 58 | 1016.8 |
| 20260507143436 | 62 | 103 | 0.0 | 2.6 | 0.00 | 0.00 | 0.00 | 61 | 1016.6 |
| 20260507142932 | 63 | 134 | 0.9 | 1.7 | 0.00 | 0.00 | 0.00 | 63 | 1016.9 |
| 20260507142428 | 62 | 119 | 0.9 | 1.7 | 0.00 | 0.00 | 0.00 | 62 | 1016.6 |
| 20260507141925 | 62 | 225 | 1.7 | 1.7 | 0.00 | 0.00 | 0.00 | 63 | 1016.9 |
| 20260507141421 | 61 | 77 | 0.9 | 1.7 | 0.00 | 0.00 | 0.00 | 65 | 1016.8 |
| 20260507140918 | 60 | 107 | 2.6 | 2.6 | 0.00 | 0.00 | 0.00 | 65 | 1016.6 |
| 20260507140414 | 59 | 67 | 2.6 | 4.3 | 0.00 | 0.00 | 0.00 | 67 | 1016.5 |
| 20260507135913 | 58 | 83 | 0.9 | 2.6 | 0.00 | 0.00 | 0.00 | 71 | 1016.3 |
| 20260507135409 | 58 | 70 | 3.5 | 3.5 | 0.00 | 0.00 | 0.00 | 71 | 1016.3 |
| 20260507134907 | 58 | 102 | 1.7 | 3.5 | 0.00 | 0.00 | 0.00 | 72 | 1016.3 |
| 20260507134402 | 58 | 72 | 2.6 | 2.6 | 0.00 | 0.00 | 0.00 | 71 | 1016.3 |
| 20260507133859 | 57 | 59 | 2.6 | 3.5 | 0.00 | 0.00 | 0.00 | 71 | 1016.5 |
| 20260507133354 | 58 | 58 | 3.5 | 3.5 | 0.00 | 0.00 | 0.00 | 69 | 1016.4 |
| 20260507132854 | 59 | 85 | 0.9 | 0.9 | 0.00 | 0.00 | 0.00 | 69 | 1016.2 |
| 20260507132349 | 57 | 63 | 1.7 | 2.6 | 0.00 | 0.00 | 0.00 | 71 | 1016.2 |
| 20260507131846 | 56 | 69 | 0.0 | 1.7 | 0.00 | 0.00 | 0.00 | 71 | 1016.1 |
| 20260507131343 | 56 | 97 | 0.0 | 1.7 | 0.00 | 0.00 | 0.00 | 72 | 1016.1 |
| 20260507130840 | 55 | 104 | 0.0 | 0.9 | 0.00 | 0.00 | 0.00 | 73 | 1016.2 |
| 20260507130337 | 54 | 78 | 0.0 | 1.7 | 0.00 | 0.00 | 0.00 | 76 | 1016.1 |
| 20260507125836 | 54 | 82 | 0.0 | 0.9 | 0.00 | 0.00 | 0.00 | 75 | 1016.0 |
| 20260507125333 | 53 | 119 | 0.9 | 0.9 | 0.00 | 0.00 | 0.00 | 77 | 1016.0 |
| 20260507124830 | 52 | 64 | 0.9 | 1.7 | 0.00 | 0.00 | 0.00 | 78 | 1015.9 |
| 20260507124326 | 51 | 92 | 0.0 | 1.7 | 0.00 | 0.00 | 0.00 | 79 | 1015.9 |
| 20260507123825 | 51 | 89 | 0.0 | 0.0 | 0.00 | 0.00 | 0.00 | 78 | 1015.9 |
| 20260507123322 | 51 | 256 | 0.0 | 0.0 | 0.00 | 0.00 | 0.00 | 78 | 1016.0 |
| 20260507122818 | 51 | 293 | 0.0 | 0.9 | 0.00 | 0.00 | 0.00 | 79 | 1015.9 |
| 20260507122313 | 52 | 183 | 0.0 | 1.7 | 0.00 | 0.00 | 0.00 | 79 | 1016.0 |
| 20260507121810 | 52 | 145 | 0.0 | 0.9 | 0.00 | 0.00 | 0.00 | 78 | 1016.0 |
| 20260507121306 | 52 | 89 | 0.0 | 0.9 | 0.00 | 0.00 | 0.00 | 79 | 1015.8 |
| 20260507120802 | 53 | 69 | 1.7 | 2.6 | 0.00 | 0.00 | 0.00 | 79 | 1015.9 |
| 20260507120259 | 53 | 60 | 0.0 | 1.7 | 0.00 | 0.00 | 0.00 | 77 | 1016.0 |
| 20260507115755 | 53 | 55 | 0.0 | 1.7 | 0.00 | 0.00 | 0.00 | 76 | 1015.9 |
| 20260507115251 | 53 | 77 | 0.0 | 0.9 | 0.00 | 0.00 | 0.00 | 75 | 1015.9 |
| 20260507114746 | 52 | 89 | 0.0 | 0.0 | 0.00 | 0.00 | 0.00 | 76 | 1016.0 |
| 20260507114244 | 53 | 67 | 0.0 | 0.0 | 0.00 | 0.00 | 0.00 | 77 | 1015.8 |
| 20260507113742 | 53 | 64 | 0.0 | 0.9 | 0.00 | 0.00 | 0.00 | 77 | 1015.9 |
| 20260507113238 | 53 | 69 | 0.0 | 1.7 | 0.00 | 0.00 | 0.00 | 76 | 1015.9 |
| 20260507112736 | 54 | 27 | 1.7 | 2.6 | 0.00 | 0.00 | 0.00 | 72 | 1016.1 |
| 20260507112233 | 55 | 46 | 0.9 | 1.7 | 0.00 | 0.00 | 0.00 | 67 | 1015.6 |
| 20260507111731 | 55 | 66 | 0.0 | 1.7 | 0.00 | 0.00 | 0.00 | 63 | 1016.0 |
| 20260507111227 | 55 | 50 | 0.0 | 0.9 | 0.00 | 0.00 | 0.00 | 64 | 1015.9 |
| 20260507110723 | 55 | 135 | 0.0 | 1.7 | 0.00 | 0.00 | 0.00 | 64 | 1016.0 |
| 20260507110220 | 54 | 110 | 0.0 | 0.9 | 0.00 | 0.00 | 0.00 | 68 | 1015.8 |
| 20260507105717 | 54 | 100 | 0.0 | 0.9 | 0.00 | 0.00 | 0.00 | 69 | 1015.8 |
| 20260507105212 | 54 | 124 | 0.9 | 1.7 | 0.00 | 0.00 | 0.00 | 68 | 1015.6 |
| 20260507104710 | 54 | 129 | 0.0 | 0.0 | 0.00 | 0.00 | 0.00 | 69 | 1016.0 |
| 20260507104207 | 55 | 196 | 0.0 | 0.9 | 0.00 | 0.00 | 0.00 | 69 | 1015.9 |
| 20260507103702 | 54 | 89 | 0.0 | 0.9 | 0.00 | 0.00 | 0.00 | 72 | 1015.8 |
| 20260507103159 | 54 | 315 | 0.0 | 0.9 | 0.00 | 0.00 | 0.00 | 74 | 1015.8 |
| 20260507102655 | 55 | 123 | 0.0 | 0.9 | 0.00 | 0.00 | 0.00 | 75 | 1015.4 |
| 20260507102152 | 55 | 125 | 0.9 | 0.9 | 0.00 | 0.00 | 0.00 | 73 | 1015.9 |
| 20260507101648 | 55 | 136 | 0.0 | 0.9 | 0.00 | 0.00 | 0.00 | 72 | 1015.4 |
| 20260507101144 | 55 | 46 | 0.9 | 1.7 | 0.00 | 0.00 | 0.00 | 73 | 1015.8 |
| 20260507100641 | 55 | 89 | 0.0 | 1.7 | 0.00 | 0.00 | 0.00 | 72 | 1015.9 |
| 20260507100140 | 55 | 83 | 1.7 | 1.7 | 0.00 | 0.00 | 0.00 | 69 | 1015.6 |
| 20260507095637 | 56 | 70 | 1.7 | 1.7 | 0.00 | 0.00 | 0.00 | 66 | 1015.9 |
| 20260507095133 | 57 | 228 | 2.6 | 3.5 | 0.00 | 0.00 | 0.00 | 64 | 1015.5 |
| 20260507094630 | 57 | 256 | 1.7 | 2.6 | 0.00 | 0.00 | 0.00 | 65 | 1015.3 |
| 20260507094127 | 57 | 278 | 0.9 | 2.6 | 0.00 | 0.00 | 0.00 | 65 | 1015.3 |
| 20260507093624 | 57 | 352 | 0.0 | 0.9 | 0.00 | 0.00 | 0.00 | 64 | 1015.8 |
| 20260507093123 | 57 | 22 | 0.0 | 0.9 | 0.00 | 0.00 | 0.00 | 63 | 1015.4 |
| 20260507092619 | 57 | 6 | 0.0 | 1.7 | 0.00 | 0.00 | 0.00 | 64 | 1015.6 |
| 20260507092115 | 58 | 31 | 0.9 | 3.5 | 0.00 | 0.00 | 0.00 | 64 | 1015.5 |
| 20260507091612 | 58 | 87 | 0.0 | 1.7 | 0.00 | 0.00 | 0.00 | 62 | 1015.5 |
| 20260507091108 | 59 | 210 | 0.9 | 1.7 | 0.00 | 0.00 | 0.00 | 61 | 1015.3 |
| 20260507090604 | 59 | 228 | 1.7 | 2.6 | 0.00 | 0.00 | 0.00 | 59 | 1015.3 |
| 20260507085558 | 60 | 243 | 2.6 | 3.5 | 0.00 | 0.00 | 0.00 | 59 | 1015.4 |
| 20260507085055 | 60 | 261 | 1.7 | 2.6 | 0.00 | 0.00 | 0.00 | 59 | 1015.5 |
| 20260507084552 | 60 | 272 | 0.9 | 2.6 | 0.00 | 0.00 | 0.00 | 59 | 1015.5 |
| 20260507084049 | 60 | 262 | 2.6 | 2.6 | 0.00 | 0.00 | 0.00 | 59 | 1015.5 |
| 20260507083545 | 60 | 226 | 2.6 | 2.6 | 0.00 | 0.00 | 0.00 | 59 | 1015.3 |
| 20260507083042 | 60 | 228 | 1.7 | 2.6 | 0.00 | 0.00 | 0.00 | 59 | 1015.2 |
| 20260507082538 | 60 | 212 | 1.7 | 2.6 | 0.00 | 0.00 | 0.00 | 59 | 1015.1 |
| 20260507082035 | 60 | 222 | 1.7 | 2.6 | 0.00 | 0.00 | 0.00 | 60 | 1015.2 |
| 20260507081531 | 61 | 203 | 2.6 | 3.5 | 0.00 | 0.00 | 0.00 | 57 | 1015.2 |
| 20260507081028 | 61 | 218 | 2.6 | 3.5 | 0.00 | 0.00 | 0.00 | 57 | 1015.1 |
| 20260507080524 | 60 | 245 | 2.6 | 3.5 | 0.00 | 0.00 | 0.00 | 59 | 1015.2 |
| 20260507080020 | 61 | 230 | 3.5 | 3.5 | 0.00 | 0.00 | 0.00 | 59 | 1015.3 |
| 20260507075516 | 61 | 224 | 3.5 | 4.3 | 0.00 | 0.00 | 0.00 | 58 | 1015.2 |
| 20260507075012 | 62 | 210 | 2.6 | 2.6 | 0.00 | 0.00 | 0.00 | 57 | 1015.2 |
| 20260507074509 | 60 | 237 | 0.0 | 1.7 | 0.00 | 0.00 | 0.00 | 59 | 1015.2 |
| 20260507074008 | 60 | 84 | 0.9 | 1.7 | 0.00 | 0.00 | 0.00 | 61 | 1015.0 |
| 20260507073503 | 61 | 205 | 1.7 | 2.6 | 0.00 | 0.00 | 0.00 | 59 | 1015.1 |
| 20260507073000 | 61 | 233 | 1.7 | 2.6 | 0.00 | 0.00 | 0.00 | 59 | 1015.1 |
| 20260507072458 | 61 | 246 | 3.5 | 4.3 | 0.00 | 0.00 | 0.00 | 61 | 1015.4 |
| 20260507071955 | 60 | 245 | 2.6 | 3.5 | 0.00 | 0.00 | 0.00 | 61 | 1015.1 |
| 20260507071452 | 60 | 241 | 2.6 | 2.6 | 0.00 | 0.00 | 0.00 | 62 | 1015.1 |
| 20260507070948 | 60 | 244 | 2.6 | 3.5 | 0.00 | 0.00 | 0.00 | 62 | 1015.0 |
| 20260507070446 | 61 | 226 | 2.6 | 3.5 | 0.00 | 0.00 | 0.00 | 61 | 1015.0 |
| 20260507065942 | 62 | 228 | 1.7 | 2.6 | 0.00 | 0.00 | 0.00 | 59 | 1015.0 |
| 20260507065439 | 63 | 218 | 2.6 | 3.5 | 0.00 | 0.00 | 0.00 | 58 | 1015.2 |
| 20260507064936 | 61 | 208 | 2.6 | 3.5 | 0.00 | 0.00 | 0.00 | 61 | 1015.2 |
| 20260507064435 | 61 | 233 | 2.6 | 2.6 | 0.00 | 0.00 | 0.00 | 61 | 1015.3 |
| 20260507063932 | 62 | 210 | 1.7 | 2.6 | 0.00 | 0.00 | 0.00 | 58 | 1015.1 |
| 20260507063429 | 63 | 222 | 2.6 | 3.5 | 0.00 | 0.00 | 0.00 | 57 | 1015.1 |
| 20260507062926 | 62 | 213 | 1.7 | 3.5 | 0.00 | 0.00 | 0.00 | 58 | 1015.2 |
| 20260507062423 | 62 | 235 | 2.6 | 3.5 | 0.00 | 0.00 | 0.00 | 60 | 1015.0 |
| 20260507061920 | 63 | 233 | 2.6 | 3.5 | 0.00 | 0.00 | 0.00 | 57 | 1015.1 |
| 20260507061418 | 63 | 211 | 2.6 | 2.6 | 0.00 | 0.00 | 0.00 | 58 | 1015.0 |
| 20260507060917 | 63 | 215 | 2.6 | 2.6 | 0.00 | 0.00 | 0.00 | 57 | 1015.0 |
| 20260507060413 | 63 | 200 | 1.7 | 2.6 | 0.00 | 0.00 | 0.00 | 58 | 1015.3 |
| 20260507055910 | 63 | 217 | 1.7 | 2.6 | 0.00 | 0.00 | 0.00 | 57 | 1014.9 |
| 20260507055405 | 63 | 211 | 1.7 | 2.6 | 0.00 | 0.00 | 0.00 | 58 | 1015.0 |
| 20260507054902 | 63 | 269 | 0.0 | 0.9 | 0.00 | 0.00 | 0.00 | 58 | 1014.9 |
| 20260507054358 | 63 | 202 | 1.7 | 2.6 | 0.00 | 0.00 | 0.00 | 57 | 1015.0 |
| 20260507053855 | 63 | 200 | 2.6 | 2.6 | 0.00 | 0.00 | 0.00 | 58 | 1015.1 |
| 20260507053353 | 63 | 246 | 0.0 | 1.7 | 0.00 | 0.00 | 0.00 | 58 | 1015.1 |
| 20260507052852 | 63 | 209 | 1.7 | 2.6 | 0.00 | 0.00 | 0.00 | 58 | 1015.0 |
| 20260507052348 | 64 | 193 | 0.0 | 2.6 | 0.00 | 0.00 | 0.00 | 57 | 1015.1 |
| 20260507051845 | 63 | 198 | 2.6 | 2.6 | 0.00 | 0.00 | 0.00 | 57 | 1015.1 |
| 20260507051343 | 64 | 237 | 0.9 | 1.7 | 0.00 | 0.00 | 0.00 | 56 | 1015.0 |
| 20260507050840 | 64 | 212 | 0.0 | 1.7 | 0.00 | 0.00 | 0.00 | 54 | 1015.1 |
| 20260507050336 | 64 | 194 | 1.7 | 1.7 | 0.00 | 0.00 | 0.00 | 53 | 1014.9 |
| 20260507045833 | 65 | 201 | 2.6 | 2.6 | 0.00 | 0.00 | 0.00 | 53 | 1014.9 |
| 20260507045330 | 65 | 179 | 0.9 | 2.6 | 0.00 | 0.00 | 0.00 | 54 | 1014.8 |
| 20260507044827 | 65 | 218 | 1.7 | 1.7 | 0.00 | 0.00 | 0.00 | 54 | 1015.1 |
| 20260507044324 | 66 | 254 | 0.9 | 1.7 | 0.00 | 0.00 | 0.00 | 54 | 1014.9 |
| 20260507043819 | 66 | 310 | 0.9 | 2.6 | 0.00 | 0.00 | 0.00 | 52 | 1015.0 |
| 20260507043316 | 66 | 314 | 1.7 | 4.3 | 0.00 | 0.00 | 0.00 | 52 | 1015.0 |
| 20260507042812 | 66 | 333 | 1.7 | 2.6 | 0.00 | 0.00 | 0.00 | 49 | 1015.1 |
| 20260507042308 | 66 | 340 | 1.7 | 2.6 | 0.00 | 0.00 | 0.00 | 51 | 1014.7 |
| 20260507041805 | 66 | 331 | 2.6 | 2.6 | 0.00 | 0.00 | 0.00 | 51 | 1014.8 |
| 20260507041302 | 66 | 338 | 2.6 | 3.5 | 0.00 | 0.00 | 0.00 | 53 | 1014.8 |
| 20260507040759 | 66 | 314 | 2.6 | 3.5 | 0.00 | 0.00 | 0.00 | 53 | 1014.9 |
| 20260507040255 | 66 | 304 | 1.7 | 2.6 | 0.00 | 0.00 | 0.00 | 53 | 1014.8 |
| 20260507035751 | 66 | 301 | 0.9 | 1.7 | 0.00 | 0.00 | 0.00 | 55 | 1014.7 |
| 20260507035246 | 66 | 327 | 1.7 | 1.7 | 0.00 | 0.00 | 0.00 | 53 | 1014.7 |
| 20260507034744 | 66 | 294 | 1.7 | 1.7 | 0.00 | 0.00 | 0.00 | 52 | 1014.5 |
| 20260507034241 | 67 | 273 | 1.7 | 1.7 | 0.00 | 0.00 | 0.00 | 51 | 1014.6 |
| 20260507033739 | 68 | 304 | 0.0 | 0.9 | 0.00 | 0.00 | 0.00 | 51 | 1014.2 |
| 20260507033237 | 68 | 192 | 0.0 | 2.6 | 0.00 | 0.00 | 0.00 | 49 | 1013.9 |
| 20260507032734 | 69 | 205 | 2.6 | 2.6 | 0.00 | 0.00 | 0.00 | 48 | 1014.3 |
| 20260507032230 | 69 | 239 | 1.7 | 2.6 | 0.00 | 0.00 | 0.00 | 48 | 1013.9 |
| 20260507031726 | 68 | 259 | 1.7 | 1.7 | 0.00 | 0.00 | 0.00 | 50 | 1013.9 |
| 20260507031223 | 68 | 296 | 0.0 | 0.9 | 0.00 | 0.00 | 0.00 | 51 | 1013.9 |
| 20260507030720 | 69 | 175 | 0.0 | 0.0 | 0.00 | 0.00 | 0.00 | 51 | 1013.7 |
| 20260507030218 | 69 | 164 | 0.0 | 1.7 | 0.00 | 0.00 | 0.00 | 50 | 1013.7 |
| 20260507025715 | 70 | 233 | 1.7 | 2.6 | 0.00 | 0.00 | 0.00 | 46 | 1013.6 |
| 20260507025212 | 70 | 319 | 0.0 | 0.9 | 0.00 | 0.00 | 0.00 | 45 | 1013.6 |
| 20260507024710 | 71 | 37 | 0.0 | 0.9 | 0.00 | 0.00 | 0.00 | 44 | 1013.5 |
| 20260507024207 | 71 | 62 | 0.0 | 0.0 | 0.00 | 0.00 | 0.00 | 43 | 1013.6 |
| 20260507023702 | 72 | 101 | 0.0 | 0.0 | 0.00 | 0.00 | 0.00 | 42 | 1013.7 |
| 20260507023159 | 73 | 89 | 0.0 | 1.7 | 0.00 | 0.00 | 0.00 | 41 | 1013.5 |
| 20260507022656 | 73 | 107 | 0.0 | 1.7 | 0.00 | 0.00 | 0.00 | 40 | 1013.5 |
| 20260507022152 | 73 | 76 | 1.7 | 1.7 | 0.00 | 0.00 | 0.00 | 41 | 1013.6 |
| 20260507021649 | 74 | 89 | 0.0 | 0.9 | 0.00 | 0.00 | 0.00 | 40 | 1013.5 |
| 20260507021144 | 74 | 110 | 0.0 | 0.9 | 0.00 | 0.00 | 0.00 | 39 | 1013.6 |
| 20260507020643 | 75 | 66 | 1.7 | 1.7 | 0.00 | 0.00 | 0.00 | 38 | 1013.5 |
| 20260507020138 | 75 | 61 | 1.7 | 2.6 | 0.00 | 0.00 | 0.00 | 38 | 1013.8 |
| 20260507015637 | 75 | 74 | 2.6 | 3.5 | 0.00 | 0.00 | 0.00 | 37 | 1013.7 |
| 20260507015134 | 75 | 84 | 1.7 | 2.6 | 0.00 | 0.00 | 0.00 | 38 | 1013.6 |
| 20260507014630 | 75 | 67 | 2.6 | 3.5 | 0.00 | 0.00 | 0.00 | 37 | 1013.8 |
| 20260507014126 | 75 | 52 | 2.6 | 3.5 | 0.00 | 0.00 | 0.00 | 38 | 1013.9 |
| 20260507013623 | 76 | 72 | 2.6 | 5.2 | 0.00 | 0.00 | 0.00 | 35 | 1013.9 |
| 20260507013120 | 76 | 57 | 2.6 | 3.5 | 0.00 | 0.00 | 0.00 | 38 | 1014.0 |
| 20260507012618 | 76 | 82 | 0.9 | 2.6 | 0.00 | 0.00 | 0.00 | 39 | 1014.0 |
| 20260507012113 | 76 | 99 | 1.7 | 2.6 | 0.00 | 0.00 | 0.00 | 36 | 1014.2 |
| 20260507011612 | 76 | 77 | 3.5 | 3.5 | 0.00 | 0.00 | 0.00 | 37 | 1014.3 |
| 20260507011107 | 75 | 112 | 0.0 | 1.7 | 0.00 | 0.00 | 0.00 | 38 | 1014.3 |
| 20260507010602 | 76 | 106 | 0.9 | 2.6 | 0.00 | 0.00 | 0.00 | 35 | 1014.0 |
| 20260507010058 | 76 | 55 | 4.3 | 4.3 | 0.00 | 0.00 | 0.00 | 36 | 1014.2 |
| 20260507005556 | 76 | 84 | 2.6 | 4.3 | 0.00 | 0.00 | 0.00 | 35 | 1014.2 |
| 20260507005052 | 77 | 113 | 1.7 | 3.5 | 0.00 | 0.00 | 0.00 | 34 | 1014.2 |
| 20260507004549 | 76 | 68 | 4.3 | 5.2 | 0.00 | 0.00 | 0.00 | 35 | 1014.2 |
| 20260507004047 | 76 | 79 | 2.6 | 3.5 | 0.00 | 0.00 | 0.00 | 35 | 1014.4 |
| 20260507003542 | 76 | 59 | 3.5 | 5.2 | 0.00 | 0.00 | 0.00 | 35 | 1014.4 |
| 20260507003038 | 77 | 77 | 2.6 | 6.1 | 0.00 | 0.00 | 0.00 | 34 | 1014.6 |
| 20260507002535 | 77 | 66 | 3.5 | 5.2 | 0.00 | 0.00 | 0.00 | 34 | 1014.4 |
| 20260507002030 | 77 | 65 | 4.3 | 5.2 | 0.00 | 0.00 | 0.00 | 34 | 1014.5 |
| 20260507001527 | 77 | 63 | 6.1 | 6.1 | 0.00 | 0.00 | 0.00 | 33 | 1014.6 |
| 20260507001025 | 77 | 108 | 3.5 | 4.3 | 0.00 | 0.00 | 0.00 | 35 | 1014.7 |
| 20260507000521 | 77 | 58 | 2.6 | 3.5 | 0.00 | 0.00 | 0.00 | 34 | 1014.5 |
| 20260507000016 | 77 | 68 | 5.2 | 7.8 | 0.00 | 0.00 | 0.00 | 34 | 1014.7 |
| 20260506235514 | 76 | 75 | 3.5 | 7.0 | 0.00 | 0.00 | 0.00 | 34 | 1014.8 |
| 20260506235009 | 76 | 72 | 3.5 | 5.2 | 0.00 | 0.00 | 0.00 | 34 | 1014.9 |
| 20260506234507 | 76 | 98 | 4.3 | 6.1 | 0.00 | 0.00 | 0.00 | 35 | 1014.7 |
| 20260506234004 | 76 | 47 | 6.1 | 11.3 | 0.00 | 0.00 | 0.00 | 35 | 1014.7 |
| 20260506233501 | 77 | 101 | 2.6 | 3.5 | 0.00 | 0.00 | 0.00 | 34 | 1014.7 |
| 20260506232957 | 77 | 100 | 2.6 | 7.0 | 0.00 | 0.00 | 0.00 | 35 | 1014.8 |
| 20260506232454 | 76 | 80 | 3.5 | 7.0 | 0.00 | 0.00 | 0.00 | 34 | 1015.0 |
| 20260506231950 | 76 | 98 | 2.6 | 4.3 | 0.00 | 0.00 | 0.00 | 35 | 1015.0 |
| 20260506231447 | 76 | 62 | 7.8 | 11.3 | 0.00 | 0.00 | 0.00 | 35 | 1015.0 |
| 20260506230944 | 77 | 105 | 2.6 | 6.1 | 0.00 | 0.00 | 0.00 | 34 | 1015.1 |
| 20260506230440 | 77 | 108 | 3.5 | 3.5 | 0.00 | 0.00 | 0.00 | 34 | 1015.3 |
| 20260506225937 | 77 | 94 | 4.3 | 5.2 | 0.00 | 0.00 | 0.00 | 34 | 1015.3 |
| 20260506225435 | 76 | 71 | 3.5 | 7.8 | 0.00 | 0.00 | 0.00 | 33 | 1015.1 |
| 20260506224931 | 76 | 87 | 4.3 | 5.2 | 0.00 | 0.00 | 0.00 | 34 | 1015.8 |
| 20260506224429 | 76 | 72 | 7.8 | 10.4 | 0.00 | 0.00 | 0.00 | 33 | 1015.8 |
| 20260506223925 | 77 | 108 | 2.6 | 3.5 | 0.00 | 0.00 | 0.00 | 32 | 1015.6 |
| 20260506223420 | 76 | 100 | 4.3 | 5.2 | 0.00 | 0.00 | 0.00 | 34 | 1015.9 |
| 20260506222918 | 75 | 91 | 4.3 | 7.0 | 0.00 | 0.00 | 0.00 | 33 | 1015.8 |
| 20260506222414 | 76 | 102 | 3.5 | 5.2 | 0.00 | 0.00 | 0.00 | 33 | 1016.3 |
| 20260506221911 | 75 | 96 | 3.5 | 8.7 | 0.00 | 0.00 | 0.00 | 33 | 1016.3 |
| 20260506221408 | 76 | 96 | 2.6 | 5.2 | 0.00 | 0.00 | 0.00 | 34 | 1016.2 |
| 20260506220906 | 75 | 74 | 4.3 | 5.2 | 0.00 | 0.00 | 0.00 | 34 | 1016.5 |
| 20260506220401 | 75 | 83 | 2.6 | 5.2 | 0.00 | 0.00 | 0.00 | 32 | 1016.7 |
| 20260506215858 | 75 | 135 | 2.6 | 4.3 | 0.00 | 0.00 | 0.00 | 33 | 1016.5 |
| 20260506215354 | 75 | 101 | 2.6 | 4.3 | 0.00 | 0.00 | 0.00 | 33 | 1016.8 |
| 20260506214850 | 75 | 99 | 5.2 | 7.0 | 0.00 | 0.00 | 0.00 | 32 | 1017.1 |
| 20260506214347 | 75 | 120 | 1.7 | 5.2 | 0.00 | 0.00 | 0.00 | 33 | 1017.3 |
| 20260506213845 | 75 | 112 | 1.7 | 2.6 | 0.00 | 0.00 | 0.00 | 33 | 1017.4 |
| 20260506213342 | 74 | 109 | 1.7 | 4.3 | 0.00 | 0.00 | 0.00 | 32 | 1017.4 |
| 20260506212839 | 74 | 74 | 5.2 | 9.6 | 0.00 | 0.00 | 0.00 | 33 | 1017.7 |
| 20260506212335 | 73 | 75 | 6.1 | 7.8 | 0.00 | 0.00 | 0.00 | 35 | 1017.6 |